Tracking 28790 objects as of 19-Apr-2024
HD Live streaming from Space Station
objects crossing your sky now

SL-12 R/B(2)

Track SL-12 R/B(2) now!


NORAD ID: 11568
Int'l Code: 1975-123F
Perigee: 35,663.0 km
Apogee: 35,803.1 km
Inclination: 4.6 °
Period: 1,433.0 minutes
Semi major axis: 42104 km
RCS: 3.1622 m2 (large)
Launch date: December 22, 1975
Source: Commonwealth of Independent States (former USSR) (CIS)
Launch site: TYURATAM MISSILE AND SPACE COMPLEX (TTMTR)

Note: This is a ROCKET BODY
Your satellite tracking list
Your tracking list is empty




NASA's NSSDC Master Catalog

Two Line Element Set (TLE):
1 11568U 75123F   24109.88496844 -.00000234  00000-0  00000-0 0  9996
2 11568   4.5834 277.6158 0016638 189.1604  22.8297  1.00488582114064
Source of the keplerian elements: AFSPC